ONEWEB-0669, 55828

Orbit data source: Space-Track

ONEWEB-0669, 55828 is a payload satellite owned by One Web (NAA) (UK) in LEO that was launched on Thu, 09 Mar 2023 UTC via an FALCON 9 launch vehicle from the Air Force Eastern Test Range (AFETR). Payload-class satellites include a variety of spacecraft equipped with specific instruments for various scientific and technological missions. These include communications satellites like Starlink; space stations such as the ISS; scientific satellites like the Hubble; Earth observation satellites from companies like Planet Labs, Umbra, and HawkEye 360; GPS; miniature CubeSats for education and research; and military/defense satellites.

Loading next visibility...
Identifier
55828, 2023-029AJ
Orbit
LEO
Country
Flag of UKUK
Related business
Manufacturer
One Web
Mission
Operational Commercial Communications
Bus & Motor
ARROW, Unknown motor
Mass
148 kg wet, ~140 kg dry
Launch date (UTC)
2023-03-09 (3 years ago)
Launch vehicle
FALCON 9
Launch site
Air Force Eastern Test Range (AFETR)
Object type
Payload
Rocket body
Debris
Shape & HBR
Trap Box + 2 Pan, 6.7 m
Radar Cross Section
3.464 m², Large (>1 m²)

Expand to show TLE details & history
Last TLE update: 2 days ago

TLE from 2 days ago
0 ONEWEB-0669
1 55828U 23029AJ  26171.28013270  .00000035  00000-0  53439-4 0  9990
2 55828  87.9193 273.8248 0002193  86.5416 273.5968 13.20772231161552
Epoch: 2026-06-20T06:43Z
TLE epoch observation values (Epoch: 2026-06-20T06:43:23.465Z)
Latitude
-0.00002°
Longitude
-95.52°
Altitude
1,184.571 km
Speed
7.261 km/s
True Right ascension
18h 15m 17s
True Declination
0° 00' 00"
Sunlit
Object was in full shadow at epoch
Visualization orbit readout
Latitude
Unknown
Longitude
Unknown
Altitude
Unknown
Speed
Unknown
Apparent Right ascension
Unknown
Apparent Declination
Unknown
Sunlit
N/A
Visualization observer readout
Local Sidereal Time
21:34:47
Azimuth
Unknown
Elevation
Unknown
Doppler factor
Unknown
Orbital elements
Apogee altitude
1,180.533 km
Perigee altitude
1,177.219 km
Semi-major axis
7,557.013 km
Eccentricity
0.00022
Inclination
87.9193°
RAAN
273.8248°
Arg. of periapsis
86.5416°
True anomaly
273.57172°
Mean anomaly
273.5968°
Eccentric anomaly
273.58426°
Mean motion
3.30383 °/min
Orbital period
108.96 mins
BSTAR
0.000053439
Loading maneuver chart data...
Computing Atmospheric mass density...
Loading historical data...
Loading historical data...
Loading historical data...
Loading historical data...
Loading historical data...
Loading historical data...
Loading historical data...

Documentation

Showing up to 5 results
|